Location: Katherine
(14.4670°S, 132.2670°E)
Time: 03:47:09
(UTC+09:30)

ISS - Pass Details

Date: 29 May 2017
Orbit: 401 x 407 km, 51.6° (Epoch: 25 November)

Event Time Altitude Azimuth Distance (km) Brightness Sun altitude
Exits shadow 05:39:22 - 334° (NNW) 1,599 -0.9 -18.7°
Reaches altitude 10° 05:39:45 10° 336° (NNW) 1,443 -1.1 -18.6°
Maximum altitude 05:42:56 54° 54° (NE) 495 -3.1 -17.9°
Drops below altitude 10° 05:46:07 10° 132° (SE) 1,456 -0.6 -17.2°
Sets 05:48:14 0° 137° (SE) 2,321 0.4 -16.7°
